Station Historical Data
Daily Summary for July 30, 2017 Units:  English    Metric   Both
Next Day »
Daily Weekly Monthly Yearly Custom
  High: Low: Average:
Temperature: 89.8 °F 70.8 °F 78.8 °F
Dew Point: 58.8 °F 45.0 °F 50.5 °F
Humidity: 58% 26% 38%
Wind Speed: 9.0mph 0.0mph 2mph
Wind Gust: 16.0mph - -
Wind- - SSE
Pressure: 30.01 in 29.96 in -
Precipitation: 0.00 in    
Historical Graphs
 
 
Tabular Data for July 30, 2017
Time Temperature Dew Point Pressure Wind Wind Speed Wind Gust Humidity Rainfall Rate (Hourly) solar Conditions
00:04 73.6 °F 49.1 °F 29.96 in East 4.0 mph 8.0 mph 42% 0.00 in 0.00 W/m2
00:09 73.5 °F 49.0 °F 29.96 in East 4.0 mph 8.0 mph 42% 0.00 in 0.00 W/m2
00:14 73.4 °F 48.9 °F 29.96 in East 5.0 mph 7.0 mph 42% 0.00 in 0.00 W/m2
00:19 73.3 °F 48.8 °F 29.97 in East 5.0 mph 7.0 mph 42% 0.00 in 0.00 W/m2
00:24 73.2 °F 48.8 °F 29.97 in East 8.0 mph 13.0 mph 42% 0.00 in 0.00 W/m2
00:29 73.2 °F 48.8 °F 29.97 in ESE 4.0 mph 12.0 mph 42% 0.00 in 0.00 W/m2
00:34 73.1 °F 48.7 °F 29.97 in East 5.0 mph 12.0 mph 42% 0.00 in 0.00 W/m2
00:39 73.1 °F 48.7 °F 29.97 in ESE 9.0 mph 12.0 mph 42% 0.00 in 0.00 W/m2
00:44 73.1 °F 48.7 °F 29.97 in East 6.0 mph 13.0 mph 42% 0.00 in 0.00 W/m2
00:49 73.1 °F 48.7 °F 29.97 in ESE 4.0 mph 9.0 mph 42% 0.00 in 0.00 W/m2
00:54 73.1 °F 48.7 °F 29.96 in East 7.0 mph 11.0 mph 42% 0.00 in 0.00 W/m2
00:59 73.1 °F 48.7 °F 29.96 in ESE 9.0 mph 12.0 mph 42% 0.00 in 0.00 W/m2
01:04 73.1 °F 48.7 °F 29.96 in East 4.0 mph 11.0 mph 42% 0.00 in 0.00 W/m2
01:09 73.1 °F 48.7 °F 29.97 in East 7.0 mph 9.0 mph 42% 0.00 in 0.00 W/m2
01:14 73.1 °F 48.0 °F 29.97 in East 2.0 mph 16.0 mph 41% 0.00 in 0.00 W/m2
01:19 73.1 °F 48.7 °F 29.97 in East 4.0 mph 14.0 mph 42% 0.00 in 0.00 W/m2
01:24 73.2 °F 48.1 °F 29.97 in East 5.0 mph 12.0 mph 41% 0.00 in 0.00 W/m2
01:29 73.2 °F 48.1 °F 29.97 in ESE 4.0 mph 12.0 mph 41% 0.00 in 0.00 W/m2
01:34 73.2 °F 48.1 °F 29.97 in ESE 7.0 mph 9.0 mph 41% 0.00 in 0.00 W/m2
01:39 73.2 °F 48.1 °F 29.97 in ESE 5.0 mph 13.0 mph 41% 0.00 in 0.00 W/m2
01:44 73.2 °F 48.1 °F 29.97 in ESE 2.0 mph 8.0 mph 41% 0.00 in 0.00 W/m2
01:49 73.2 °F 48.1 °F 29.96 in Calm   12.0 mph 41% 0.00 in 0.00 W/m2
01:54 73.2 °F 48.1 °F 29.96 in East 7.0 mph 9.0 mph 41% 0.00 in 0.00 W/m2
01:59 73.2 °F 48.1 °F 29.96 in East 6.0 mph 9.0 mph 41% 0.00 in 0.00 W/m2
02:04 73.1 °F 48.0 °F 29.96 in East 2.0 mph 9.0 mph 41% 0.00 in 0.00 W/m2
02:09 73.0 °F 48.6 °F 29.96 in East 5.0 mph 9.0 mph 42% 0.00 in 0.00 W/m2
02:14 73.0 °F 48.6 °F 29.96 in East 6.0 mph 9.0 mph 42% 0.00 in 0.00 W/m2
02:19 72.9 °F 48.5 °F 29.97 in East 5.0 mph 8.0 mph 42% 0.00 in 0.00 W/m2
02:24 72.8 °F 48.4 °F 29.96 in East 5.0 mph 8.0 mph 42% 0.00 in 0.00 W/m2
02:29 72.7 °F 48.3 °F 29.96 in East 5.0 mph 7.0 mph 42% 0.00 in 0.00 W/m2
02:34 72.6 °F 48.2 °F 29.96 in East 7.0 mph 11.0 mph 42% 0.00 in 0.00 W/m2
02:39 72.5 °F 48.1 °F 29.96 in ESE 4.0 mph 12.0 mph 42% 0.00 in 0.00 W/m2
02:44 72.4 °F 48.0 °F 29.96 in ESE 4.0 mph 9.0 mph 42% 0.00 in 0.00 W/m2
02:49 72.4 °F 48.0 °F 29.96 in ESE 4.0 mph 9.0 mph 42% 0.00 in 0.00 W/m2
02:54 72.4 °F 48.0 °F 29.96 in ESE 2.0 mph 8.0 mph 42% 0.00 in 0.00 W/m2
02:59 72.3 °F 48.0 °F 29.96 in ESE 4.0 mph 11.0 mph 42% 0.00 in 0.00 W/m2
03:04 72.2 °F 48.5 °F 29.96 in ESE 9.0 mph 11.0 mph 43% 0.00 in 0.00 W/m2
03:09 72.2 °F 48.5 °F 29.96 in ESE 8.0 mph 13.0 mph 43% 0.00 in 0.00 W/m2
03:14 72.1 °F 47.8 °F 29.96 in ESE 7.0 mph 11.0 mph 42% 0.00 in 0.00 W/m2
03:19 72.0 °F 48.3 °F 29.96 in Calm   12.0 mph 43% 0.00 in 0.00 W/m2
03:24 72.0 °F 48.3 °F 29.96 in East 2.0 mph 12.0 mph 43% 0.00 in 0.00 W/m2
03:29 71.9 °F 48.2 °F 29.96 in East 7.0 mph 12.0 mph 43% 0.00 in 0.00 W/m2
03:34 71.9 °F 48.2 °F 29.96 in East 4.0 mph 11.0 mph 43% 0.00 in 0.00 W/m2
03:39 71.9 °F 48.2 °F 29.96 in East 8.0 mph 12.0 mph 43% 0.00 in 0.00 W/m2
03:42 71.8 °F 48.1 °F 29.96 in East 6.0 mph 9.0 mph 43% 0.00 in 0.00 W/m2
03:47 71.8 °F 48.1 °F 29.96 in East 6.0 mph 9.0 mph 43% 0.00 in 0.00 W/m2
03:52 71.8 °F 48.1 °F 29.96 in East 5.0 mph 12.0 mph 43% 0.00 in 0.00 W/m2
03:58 71.7 °F 48.0 °F 29.96 in East 8.0 mph 9.0 mph 43% 0.00 in 0.00 W/m2
04:03 71.7 °F 48.0 °F 29.96 in East 8.0 mph 9.0 mph 43% 0.00 in 0.00 W/m2
04:08 71.7 °F 48.0 °F 29.96 in East 5.0 mph 9.0 mph 43% 0.00 in 0.00 W/m2
04:13 71.7 °F 48.0 °F 29.96 in East 5.0 mph 12.0 mph 43% 0.00 in 0.00 W/m2
04:18 71.6 °F 47.9 °F 29.96 in Calm   10.0 mph 43% 0.00 in 0.00 W/m2
04:23 71.6 °F 47.9 °F 29.96 in East 7.0 mph 9.0 mph 43% 0.00 in 0.00 W/m2
04:28 71.6 °F 47.9 °F 29.96 in East 2.0 mph 8.0 mph 43% 0.00 in 0.00 W/m2
04:33 71.6 °F 47.9 °F 29.96 in East 2.0 mph 9.0 mph 43% 0.00 in 0.00 W/m2
04:38 71.5 °F 47.8 °F 29.96 in East 1.0 mph 11.0 mph 43% 0.00 in 0.00 W/m2
04:43 71.5 °F 47.8 °F 29.96 in East 6.0 mph 11.0 mph 43% 0.00 in 0.00 W/m2
04:48 71.4 °F 47.8 °F 29.96 in East 2.0 mph 8.0 mph 43% 0.00 in 0.00 W/m2
04:53 71.4 °F 47.8 °F 29.96 in Calm   8.0 mph 43% 0.00 in 0.00 W/m2
04:58 71.3 °F 47.7 °F 29.96 in East 8.0 mph 9.0 mph 43% 0.00 in 0.00 W/m2
05:03 71.3 °F 47.7 °F 29.96 in Calm   11.0 mph 43% 0.00 in 0.00 W/m2
05:08 71.2 °F 47.6 °F 29.96 in ESE 6.0 mph 8.0 mph 43% 0.00 in 0.00 W/m2
05:13 71.1 °F 48.1 °F 29.96 in ESE 7.0 mph 11.0 mph 44% 0.00 in 0.00 W/m2
05:18 71.1 °F 48.1 °F 29.96 in ESE 7.0 mph 8.0 mph 44% 0.00 in 0.00 W/m2
05:23 71.0 °F 48.0 °F 29.96 in ESE 4.0 mph 7.0 mph 44% 0.00 in 0.00 W/m2
05:28 70.9 °F 47.9 °F 29.96 in ESE 2.0 mph 11.0 mph 44% 0.00 in 0.00 W/m2
05:33 70.9 °F 47.9 °F 29.96 in ESE 6.0 mph 11.0 mph 44% 0.00 in 0.00 W/m2
05:38 70.9 °F 47.9 °F 29.96 in East 2.0 mph 13.0 mph 44% 0.00 in 0.00 W/m2
05:43 70.8 °F 47.8 °F 29.96 in East 7.0 mph 14.0 mph 44% 0.00 in 0.00 W/m2
05:48 70.8 °F 47.8 °F 29.96 in ESE 6.0 mph 12.0 mph 44% 0.00 in 0.00 W/m2
05:50 70.8 °F 47.8 °F 29.96 in ESE 6.0 mph 13.0 mph 44% 0.00 in 0.00 W/m2
05:55 70.8 °F 47.8 °F 29.96 in Calm   13.0 mph 44% 0.00 in 0.00 W/m2
06:00 70.9 °F 47.3 °F 29.96 in ESE 1.0 mph 11.0 mph 43% 0.00 in 0.00 W/m2
06:05 70.9 °F 47.9 °F 29.97 in ESE 6.0 mph 13.0 mph 44% 0.00 in 5.00 W/m2
06:10 70.8 °F 47.8 °F 29.97 in East 5.0 mph 9.0 mph 44% 0.00 in 9.00 W/m2
06:15 70.8 °F 47.8 °F 29.97 in East 7.0 mph 9.0 mph 44% 0.00 in 11.00 W/m2
06:20 70.8 °F 47.8 °F 29.97 in ESE 4.0 mph 9.0 mph 44% 0.00 in 14.00 W/m2
06:25 70.8 °F 47.8 °F 29.97 in East 5.0 mph 9.0 mph 44% 0.00 in 16.00 W/m2
06:30 70.8 °F 47.8 °F 29.97 in ESE 1.0 mph 9.0 mph 44% 0.00 in 21.00 W/m2
06:31 70.8 °F 47.8 °F 29.97 in ESE 1.0 mph 1.0 mph 44% 0.00 in 21.00 W/m2
06:36 70.8 °F 47.8 °F 29.97 in Calm   6.0 mph 44% 0.00 in 28.00 W/m2
06:41 70.8 °F 47.8 °F 29.97 in ESE 2.0 mph 5.0 mph 44% 0.00 in 37.00 W/m2
06:46 70.8 °F 47.8 °F 29.97 in ESE 2.0 mph 5.0 mph 44% 0.00 in 47.00 W/m2
06:51 70.8 °F 48.4 °F 29.98 in ESE 4.0 mph 4.0 mph 45% 0.00 in 62.00 W/m2
06:56 70.8 °F 48.4 °F 29.98 in Calm   1.0 mph 45% 0.00 in 74.00 W/m2
07:01 70.8 °F 48.4 °F 29.98 in ESE 1.0 mph 1.0 mph 45% 0.00 in 88.00 W/m2
07:06 70.8 °F 49.0 °F 29.98 in ESE 2.0 mph 2.0 mph 46% 0.00 in 104.00 W/m2
07:11 70.8 °F 49.0 °F 29.98 in ESE 7.0 mph 7.0 mph 46% 0.00 in 118.00 W/m2
07:16 70.8 °F 49.0 °F 29.98 in Calm   8.0 mph 46% 0.00 in 134.00 W/m2
07:21 70.8 °F 49.6 °F 29.98 in ESE 1.0 mph 1.0 mph 47% 0.00 in 153.00 W/m2
07:26 70.8 °F 49.6 °F 29.98 in ESE 5.0 mph 5.0 mph 47% 0.00 in 171.00 W/m2
07:31 70.8 °F 49.6 °F 29.98 in ESE 5.0 mph 5.0 mph 47% 0.00 in 192.00 W/m2
07:36 70.8 °F 50.2 °F 29.99 in Calm   9.0 mph 48% 0.00 in 213.00 W/m2
07:41 70.8 °F 50.2 °F 29.99 in Calm   6.0 mph 48% 0.00 in 232.00 W/m2
07:46 70.9 °F 50.8 °F 29.99 in Calm   9.0 mph 49% 0.00 in 248.00 W/m2
07:51 70.9 °F 50.8 °F 29.99 in Calm   7.0 mph 49% 0.00 in 265.00 W/m2
07:56 71.0 °F 50.9 °F 29.99 in Calm   1.0 mph 49% 0.00 in 279.00 W/m2
08:01 71.0 °F 51.5 °F 29.99 in Calm   6.0 mph 50% 0.00 in 297.00 W/m2
08:06 71.1 °F 51.5 °F 29.99 in Calm   7.0 mph 50% 0.00 in 313.00 W/m2
08:11 71.2 °F 52.2 °F 30.00 in Calm   6.0 mph 51% 0.00 in 329.00 W/m2
08:16 71.3 °F 52.3 °F 30.00 in Calm   1.0 mph 51% 0.00 in 346.00 W/m2
08:21 71.4 °F 52.3 °F 30.00 in ESE 2.0 mph 7.0 mph 51% 0.00 in 364.00 W/m2
08:26 71.6 °F 53.1 °F 30.00 in Calm   1.0 mph 52% 0.00 in 376.00 W/m2
08:31 71.7 °F 53.7 °F 30.00 in Calm     53% 0.00 in 392.00 W/m2
08:36 71.9 °F 53.9 °F 30.00 in Calm   2.0 mph 53% 0.00 in 408.00 W/m2
08:41 72.1 °F 54.6 °F 30.00 in Calm   1.0 mph 54% 0.00 in 425.00 W/m2
08:46 72.3 °F 54.7 °F 30.00 in Calm     54% 0.00 in 441.00 W/m2
08:51 72.6 °F 56.0 °F 30.01 in Calm   1.0 mph 56% 0.00 in 452.00 W/m2
08:57 72.9 °F 56.3 °F 30.01 in Calm     56% 0.00 in 466.00 W/m2
09:02 73.2 °F 57.1 °F 30.01 in Calm     57% 0.00 in 482.00 W/m2
09:07 73.5 °F 57.3 °F 30.01 in Calm     57% 0.00 in 490.00 W/m2
09:12 73.9 °F 57.7 °F 30.01 in Calm     57% 0.00 in 504.00 W/m2
09:17 74.2 °F 58.5 °F 30.01 in Calm     58% 0.00 in 522.00 W/m2
09:22 74.6 °F 57.9 °F 30.00 in Calm     56% 0.00 in 534.00 W/m2
09:27 75.0 °F 55.7 °F 30.01 in Calm     51% 0.00 in 547.00 W/m2
09:32 75.3 °F 54.8 °F 30.01 in Calm     49% 0.00 in 561.00 W/m2
09:37 75.8 °F 55.9 °F 30.01 in Calm     50% 0.00 in 573.00 W/m2
09:42 76.3 °F 56.3 °F 30.01 in Calm     50% 0.00 in 591.00 W/m2
09:47 76.9 °F 58.0 °F 30.01 in Calm     52% 0.00 in 605.00 W/m2
09:52 77.5 °F 56.3 °F 30.01 in Calm     48% 0.00 in 619.00 W/m2
09:57 78.0 °F 57.9 °F 30.01 in Calm     50% 0.00 in 636.00 W/m2
10:02 78.4 °F 58.8 °F 30.01 in Calm   1.0 mph 51% 0.00 in 650.00 W/m2
10:07 78.7 °F 56.8 °F 30.01 in Calm     47% 0.00 in 668.00 W/m2
10:12 79.1 °F 57.2 °F 30.01 in Calm   1.0 mph 47% 0.00 in 679.00 W/m2
10:17 79.4 °F 55.6 °F 30.01 in ESE 1.0 mph 2.0 mph 44% 0.00 in 693.00 W/m2
10:22 79.7 °F 53.9 °F 30.01 in Calm   2.0 mph 41% 0.00 in 708.00 W/m2
10:27 80.0 °F 52.1 °F 30.01 in Calm   4.0 mph 38% 0.00 in 719.00 W/m2
10:32 80.2 °F 53.7 °F 30.01 in Calm     40% 0.00 in 721.00 W/m2
10:37 80.5 °F 51.9 °F 30.01 in Calm     37% 0.00 in 735.00 W/m2
10:42 80.8 °F 53.6 °F 30.01 in Calm   2.0 mph 39% 0.00 in 744.00 W/m2
10:47 81.1 °F 53.8 °F 30.01 in ESE 1.0 mph 4.0 mph 39% 0.00 in 754.00 W/m2
10:52 81.4 °F 51.9 °F 30.01 in Calm   2.0 mph 36% 0.00 in 766.00 W/m2
10:57 81.7 °F 52.2 °F 30.01 in Calm     36% 0.00 in 773.00 W/m2
11:02 82.0 °F 53.2 °F 30.01 in East 2.0 mph 2.0 mph 37% 0.00 in 777.00 W/m2
11:07 82.3 °F 51.9 °F 30.01 in Calm     35% 0.00 in 793.00 W/m2
11:12 82.6 °F 51.4 °F 30.01 in Calm   3.0 mph 34% 0.00 in 803.00 W/m2
11:17 82.8 °F 50.8 °F 30.01 in Calm   1.0 mph 33% 0.00 in 805.00 W/m2
11:22 83.1 °F 52.6 °F 30.01 in Calm     35% 0.00 in 805.00 W/m2
11:27 83.4 °F 52.1 °F 30.01 in Calm     34% 0.00 in 824.00 W/m2
11:32 83.6 °F 50.7 °F 30.01 in Calm   2.0 mph 32% 0.00 in 831.00 W/m2
11:37 83.9 °F 49.2 °F 30.01 in Calm   2.0 mph 30% 0.00 in 824.00 W/m2
11:38 83.9 °F 49.2 °F 30.01 in Calm   3.0 mph 30% 0.00 in 826.00 W/m2
11:43 84.3 °F 51.3 °F 30.01 in NNW 1.0 mph 5.0 mph 32% 0.00 in 835.00 W/m2
11:48 84.7 °F 51.6 °F 30.01 in NNW 4.0 mph 4.0 mph 32% 0.00 in 854.00 W/m2
11:53 85.0 °F 51.9 °F 30.01 in Calm   3.0 mph 32% 0.00 in 846.00 W/m2
11:58 85.1 °F 51.1 °F 30.01 in NNW 4.0 mph 4.0 mph 31% 0.00 in 854.00 W/m2
12:03 85.4 °F 52.2 °F 30.01 in Calm   1.0 mph 32% 0.00 in 870.00 W/m2
12:08 85.6 °F 52.4 °F 30.01 in Calm   3.0 mph 32% 0.00 in 863.00 W/m2
12:13 85.9 °F 51.8 °F 30.01 in NW 2.0 mph 5.0 mph 31% 0.00 in 860.00 W/m2
12:18 86.4 °F 52.2 °F 30.01 in Calm   6.0 mph 31% 0.00 in 853.00 W/m2
12:23 86.7 °F 53.3 °F 30.01 in Calm     32% 0.00 in 863.00 W/m2
12:28 86.9 °F 49.9 °F 30.01 in Calm   1.0 mph 28% 0.00 in 844.00 W/m2
12:33 87.0 °F 51.8 °F 30.01 in NW 3.0 mph 3.0 mph 30% 0.00 in 858.00 W/m2
12:38 87.1 °F 50.1 °F 30.01 in NW 4.0 mph 6.0 mph 28% 0.00 in 838.00 W/m2
12:43 87.4 °F 50.3 °F 30.01 in Calm   4.0 mph 28% 0.00 in 847.00 W/m2
12:48 87.5 °F 51.4 °F 30.01 in Calm   1.0 mph 29% 0.00 in 812.00 W/m2
12:53 87.7 °F 50.6 °F 30.00 in WNW 1.0 mph 1.0 mph 28% 0.00 in 854.00 W/m2
12:58 87.8 °F 53.4 °F 30.00 in Calm     31% 0.00 in 872.00 W/m2
13:03 88.1 °F 50.9 °F 30.00 in Calm   3.0 mph 28% 0.00 in 870.00 W/m2
13:08 88.5 °F 52.2 °F 30.00 in WNW 4.0 mph 7.0 mph 29% 0.00 in 895.00 W/m2
13:13 88.6 °F 52.3 °F 30.00 in Calm   1.0 mph 29% 0.00 in 882.00 W/m2
13:18 88.7 °F 52.4 °F 30.00 in Calm   3.0 mph 29% 0.00 in 875.00 W/m2
13:23 88.8 °F 53.4 °F 30.00 in NW 6.0 mph 7.0 mph 30% 0.00 in 884.00 W/m2
13:28 88.7 °F 52.4 °F 30.00 in WNW 5.0 mph 6.0 mph 29% 0.00 in 898.00 W/m2
13:33 88.7 °F 54.2 °F 30.00 in Calm   4.0 mph 31% 0.00 in 893.00 W/m2
13:38 88.8 °F 54.3 °F 29.99 in West 1.0 mph 3.0 mph 31% 0.00 in 895.00 W/m2
13:39 88.9 °F 53.5 °F 30.00 in Calm   3.0 mph 30% 0.00 in 877.00 W/m2
13:44 89.0 °F 54.5 °F 29.99 in Calm   7.0 mph 31% 0.00 in 875.00 W/m2
13:49 89.1 °F 55.4 °F 29.99 in WNW 4.0 mph 7.0 mph 32% 0.00 in 889.00 W/m2
13:54 89.2 °F 54.6 °F 30.00 in Calm   8.0 mph 31% 0.00 in 886.00 W/m2
13:59 89.3 °F 53.8 °F 29.99 in WNW 5.0 mph 7.0 mph 30% 0.00 in 872.00 W/m2
14:04 89.5 °F 53.1 °F 30.00 in West 8.0 mph 12.0 mph 29% 0.00 in 874.00 W/m2
14:09 89.6 °F 54.1 °F 29.99 in Calm   2.0 mph 30% 0.00 in 860.00 W/m2
14:14 89.7 °F 53.2 °F 29.99 in Calm   7.0 mph 29% 0.00 in 856.00 W/m2
14:19 89.7 °F 53.2 °F 29.99 in Calm   6.0 mph 29% 0.00 in 858.00 W/m2
14:24 89.6 °F 54.1 °F 29.99 in Calm   8.0 mph 30% 0.00 in 858.00 W/m2
14:29 89.5 °F 53.1 °F 29.99 in Calm   11.0 mph 29% 0.00 in 853.00 W/m2
14:34 89.5 °F 51.1 °F 29.99 in Calm   7.0 mph 27% 0.00 in 844.00 W/m2
14:39 89.6 °F 52.2 °F 29.99 in West 2.0 mph 6.0 mph 28% 0.00 in 831.00 W/m2
14:44 89.6 °F 52.2 °F 29.99 in Calm   8.0 mph 28% 0.00 in 824.00 W/m2
14:49 89.6 °F 52.2 °F 29.99 in WNW 4.0 mph 5.0 mph 28% 0.00 in 819.00 W/m2
14:54 89.7 °F 52.3 °F 29.99 in West 5.0 mph 8.0 mph 28% 0.00 in 810.00 W/m2
14:59 89.7 °F 53.2 °F 29.99 in West 4.0 mph 7.0 mph 29% 0.00 in 805.00 W/m2
15:04 89.7 °F 52.3 °F 29.98 in Calm   7.0 mph 28% 0.00 in 795.00 W/m2
15:09 89.7 °F 53.2 °F 29.99 in West 3.0 mph 6.0 mph 29% 0.00 in 784.00 W/m2
15:14 89.7 °F 52.3 °F 29.99 in Calm   11.0 mph 28% 0.00 in 777.00 W/m2
15:19 89.8 °F 52.4 °F 29.99 in WNW 6.0 mph 10.0 mph 28% 0.00 in 768.00 W/m2
15:24 89.5 °F 52.1 °F 29.98 in Calm   4.0 mph 28% 0.00 in 758.00 W/m2
15:29 89.4 °F 52.0 °F 29.98 in Calm   6.0 mph 28% 0.00 in 749.00 W/m2
15:34 89.4 °F 52.0 °F 29.98 in Calm   3.0 mph 28% 0.00 in 737.00 W/m2
15:39 89.3 °F 52.0 °F 29.98 in West 2.0 mph 9.0 mph 28% 0.00 in 726.00 W/m2
15:45 89.2 °F 51.9 °F 29.98 in Calm   4.0 mph 28% 0.00 in 717.00 W/m2
15:50 89.1 °F 53.7 °F 29.98 in Calm   5.0 mph 30% 0.00 in 703.00 W/m2
15:55 89.2 °F 51.9 °F 29.98 in Calm   6.0 mph 28% 0.00 in 694.00 W/m2
16:00 89.4 °F 50.0 °F 29.98 in Calm   7.0 mph 26% 0.00 in 684.00 W/m2
16:05 89.5 °F 52.1 °F 29.98 in Calm   6.0 mph 28% 0.00 in 668.00 W/m2
16:10 89.4 °F 50.0 °F 29.98 in West 2.0 mph 8.0 mph 26% 0.00 in 656.00 W/m2
16:15 89.5 °F 51.1 °F 29.98 in West 3.0 mph 8.0 mph 27% 0.00 in 642.00 W/m2
16:20 89.5 °F 51.1 °F 29.98 in West 6.0 mph 6.0 mph 27% 0.00 in 631.00 W/m2
16:25 89.5 °F 52.1 °F 29.98 in West 2.0 mph 5.0 mph 28% 0.00 in 621.00 W/m2
16:30 89.4 °F 53.0 °F 29.98 in West 2.0 mph 4.0 mph 29% 0.00 in 605.00 W/m2
16:35 89.2 °F 50.9 °F 29.98 in West 1.0 mph 2.0 mph 27% 0.00 in 591.00 W/m2
16:40 89.2 °F 50.9 °F 29.98 in West 3.0 mph 7.0 mph 27% 0.00 in 575.00 W/m2
16:45 89.2 °F 51.9 °F 29.97 in Calm   4.0 mph 28% 0.00 in 563.00 W/m2
16:50 89.1 °F 51.8 °F 29.97 in West 6.0 mph 7.0 mph 28% 0.00 in 550.00 W/m2
16:51 89.1 °F 50.8 °F 29.97 in WSW 1.0 mph 5.0 mph 27% 0.00 in 555.00 W/m2
16:56 89.1 °F 52.7 °F 29.97 in Calm     29% 0.00 in 533.00 W/m2
17:01 88.9 °F 52.6 °F 29.97 in Calm   3.0 mph 29% 0.00 in 519.00 W/m2
17:06 88.7 °F 50.5 °F 29.97 in West 1.0 mph 3.0 mph 27% 0.00 in 501.00 W/m2
17:11 88.5 °F 51.3 °F 29.97 in West 1.0 mph 1.0 mph 28% 0.00 in 487.00 W/m2
17:16 88.5 °F 53.1 °F 29.97 in West 1.0 mph 3.0 mph 30% 0.00 in 475.00 W/m2
17:21 88.4 °F 50.2 °F 29.97 in West 1.0 mph 3.0 mph 27% 0.00 in 461.00 W/m2
17:26 88.5 °F 52.2 °F 29.97 in WSW 5.0 mph 8.0 mph 29% 0.00 in 445.00 W/m2
17:31 88.5 °F 50.3 °F 29.97 in Calm   3.0 mph 27% 0.00 in 429.00 W/m2
17:36 88.3 °F 53.0 °F 29.97 in Calm   1.0 mph 30% 0.00 in 413.00 W/m2
17:41 88.1 °F 51.9 °F 29.97 in Calm   1.0 mph 29% 0.00 in 399.00 W/m2
17:46 88.0 °F 54.5 °F 29.97 in Calm   6.0 mph 32% 0.00 in 381.00 W/m2
17:51 87.7 °F 52.5 °F 29.97 in West 2.0 mph 3.0 mph 30% 0.00 in 371.00 W/m2
17:56 87.5 °F 50.4 °F 29.97 in WNW 5.0 mph 6.0 mph 28% 0.00 in 348.00 W/m2
18:01 87.5 °F 50.4 °F 29.97 in Calm   1.0 mph 28% 0.00 in 330.00 W/m2
18:06 87.4 °F 51.3 °F 29.97 in Calm     29% 0.00 in 318.00 W/m2
18:11 87.3 °F 52.1 °F 29.97 in Calm   1.0 mph 30% 0.00 in 302.00 W/m2
18:16 87.1 °F 52.8 °F 29.97 in Calm     31% 0.00 in 287.00 W/m2
18:21 86.9 °F 52.7 °F 29.97 in Calm     31% 0.00 in 272.00 W/m2
18:26 86.7 °F 53.3 °F 29.97 in Calm     32% 0.00 in 255.00 W/m2
18:32 86.5 °F 52.3 °F 29.97 in WNW 2.0 mph 2.0 mph 31% 0.00 in 239.00 W/m2
18:37 86.4 °F 53.9 °F 29.97 in Calm   1.0 mph 33% 0.00 in 223.00 W/m2
18:42 86.1 °F 53.7 °F 29.97 in Calm   1.0 mph 33% 0.00 in 207.00 W/m2
18:47 85.8 °F 54.2 °F 29.97 in WNW 4.0 mph 5.0 mph 34% 0.00 in 192.00 W/m2
18:52 85.6 °F 54.0 °F 29.97 in West 3.0 mph 3.0 mph 34% 0.00 in 174.00 W/m2
18:57 85.3 °F 54.6 °F 29.97 in Calm   1.0 mph 35% 0.00 in 162.00 W/m2
19:02 84.9 °F 54.2 °F 29.97 in Calm     35% 0.00 in 146.00 W/m2
19:07 84.5 °F 54.6 °F 29.97 in Calm   1.0 mph 36% 0.00 in 128.00 W/m2
19:12 84.3 °F 54.5 °F 29.97 in Calm   1.0 mph 36% 0.00 in 111.00 W/m2
19:17 83.9 °F 54.9 °F 29.97 in West 1.0 mph 1.0 mph 37% 0.00 in 93.00 W/m2
19:22 83.3 °F 54.3 °F 29.97 in Calm     37% 0.00 in 79.00 W/m2
19:27 82.8 °F 54.6 °F 29.98 in Calm   1.0 mph 38% 0.00 in 65.00 W/m2
19:32 82.4 °F 54.3 °F 29.97 in Calm     38% 0.00 in 53.00 W/m2
19:37 81.8 °F 53.7 °F 29.97 in Calm     38% 0.00 in 42.00 W/m2
19:42 81.3 °F 53.3 °F 29.97 in Calm   1.0 mph 38% 0.00 in 35.00 W/m2
19:47 80.7 °F 52.8 °F 29.97 in West 1.0 mph 1.0 mph 38% 0.00 in 28.00 W/m2
19:52 80.3 °F 52.4 °F 29.97 in Calm   2.0 mph 38% 0.00 in 23.00 W/m2
19:57 79.8 °F 52.0 °F 29.97 in Calm   2.0 mph 38% 0.00 in 18.00 W/m2
20:02 79.3 °F 50.8 °F 29.97 in Calm   1.0 mph 37% 0.00 in 14.00 W/m2
20:07 78.8 °F 50.4 °F 29.97 in Calm     37% 0.00 in 11.00 W/m2
20:12 78.5 °F 50.1 °F 29.98 in Calm     37% 0.00 in 9.00 W/m2
20:17 78.3 °F 49.9 °F 29.98 in Calm     37% 0.00 in 5.00 W/m2
20:22 78.1 °F 49.7 °F 29.97 in Calm     37% 0.00 in 0.00 W/m2
20:27 77.8 °F 49.5 °F 29.98 in Calm     37% 0.00 in 0.00 W/m2
20:32 77.5 °F 48.5 °F 29.98 in Calm     36% 0.00 in 0.00 W/m2
20:37 77.3 °F 48.3 °F 29.98 in Calm     36% 0.00 in 0.00 W/m2
20:42 77.0 °F 48.0 °F 29.98 in Calm     36% 0.00 in 0.00 W/m2
20:48 76.8 °F 47.1 °F 29.98 in Calm     35% 0.00 in 0.00 W/m2
20:53 76.6 °F 47.7 °F 29.98 in Calm     36% 0.00 in 0.00 W/m2
20:58 76.5 °F 47.6 °F 29.98 in Calm   1.0 mph 36% 0.00 in 0.00 W/m2
21:03 76.3 °F 46.7 °F 29.98 in Calm     35% 0.00 in 0.00 W/m2
21:08 76.2 °F 46.6 °F 29.98 in Calm     35% 0.00 in 0.00 W/m2
21:13 76.2 °F 46.6 °F 29.99 in Calm     35% 0.00 in 0.00 W/m2
21:18 76.2 °F 46.6 °F 29.99 in Calm     35% 0.00 in 0.00 W/m2
21:23 76.2 °F 46.6 °F 29.99 in Calm     35% 0.00 in 0.00 W/m2
21:28 76.2 °F 46.6 °F 29.99 in Calm     35% 0.00 in 0.00 W/m2
21:33 76.1 °F 45.7 °F 29.99 in Calm     34% 0.00 in 0.00 W/m2
21:38 76.0 °F 45.6 °F 29.99 in Calm     34% 0.00 in 0.00 W/m2
21:43 75.9 °F 46.3 °F 29.99 in Calm   1.0 mph 35% 0.00 in 0.00 W/m2
21:48 75.8 °F 45.5 °F 29.99 in Calm     34% 0.00 in 0.00 W/m2
21:53 75.7 °F 46.1 °F 29.99 in Calm     35% 0.00 in 0.00 W/m2
21:58 75.7 °F 45.4 °F 29.99 in Calm     34% 0.00 in 0.00 W/m2
22:03 75.6 °F 45.3 °F 30.00 in Calm     34% 0.00 in 0.00 W/m2
22:08 75.6 °F 45.3 °F 30.00 in Calm     34% 0.00 in 0.00 W/m2
22:13 75.5 °F 45.2 °F 30.00 in Calm     34% 0.00 in 0.00 W/m2
22:18 75.5 °F 45.2 °F 30.00 in Calm     34% 0.00 in 0.00 W/m2
22:23 75.5 °F 45.2 °F 30.00 in Calm   1.0 mph 34% 0.00 in 0.00 W/m2
22:28 75.4 °F 45.1 °F 30.00 in Calm     34% 0.00 in 0.00 W/m2
22:33 75.4 °F 45.1 °F 30.00 in Calm     34% 0.00 in 0.00 W/m2
22:38 75.4 °F 45.1 °F 29.99 in Calm     34% 0.00 in 0.00 W/m2
22:43 75.3 °F 45.0 °F 29.99 in Calm     34% 0.00 in 0.00 W/m2
22:48 75.3 °F 45.8 °F 29.99 in Calm     35% 0.00 in 0.00 W/m2
22:53 75.2 °F 46.4 °F 30.00 in Calm     36% 0.00 in 0.00 W/m2
22:58 75.2 °F 46.4 °F 29.99 in Calm   1.0 mph 36% 0.00 in 0.00 W/m2
23:03 75.2 °F 47.2 °F 30.00 in Calm   4.0 mph 37% 0.00 in 0.00 W/m2
23:08 75.1 °F 47.8 °F 30.00 in Calm   4.0 mph 38% 0.00 in 0.00 W/m2
23:13 75.1 °F 48.5 °F 30.00 in West 4.0 mph 4.0 mph 39% 0.00 in 0.00 W/m2
23:18 75.1 °F 48.5 °F 30.00 in West 3.0 mph 4.0 mph 39% 0.00 in 0.00 W/m2
23:23 75.1 °F 49.2 °F 30.00 in Calm   7.0 mph 40% 0.00 in 0.00 W/m2
23:28 75.0 °F 49.7 °F 30.00 in Calm   4.0 mph 41% 0.00 in 0.00 W/m2
23:33 75.0 °F 49.7 °F 30.00 in Calm   7.0 mph 41% 0.00 in 0.00 W/m2
23:38 74.9 °F 50.3 °F 30.00 in SSE 6.0 mph 7.0 mph 42% 0.00 in 0.00 W/m2
23:43 74.9 °F 50.3 °F 30.00 in SE 2.0 mph 9.0 mph 42% 0.00 in 0.00 W/m2
23:48 74.8 °F 50.8 °F 29.99 in ESE 6.0 mph 8.0 mph 43% 0.00 in 0.00 W/m2
23:53 74.8 °F 50.8 °F 30.00 in ESE 5.0 mph 6.0 mph 43% 0.00 in 0.00 W/m2
23:58 74.7 °F 50.7 °F 30.00 in ESE 5.0 mph 8.0 mph 43% 0.00 in 0.00 W/m2
Foresthill Weather
 WU-history PHP script courtesy of   Juneau County Weather.
powered by Cumulus v1.9.3 (1059)
Ambient Weather VWS v14.00
Top Contact Website Map Copyright © 2007 - 2018 Foresthillweather.com Never base important decisions on this or any weather information obtained from the Internet